Location: Newark
(40.6600°N, 16.2200°E)
Time: 09:54:36
(UTC+00:00)

N. Korean satellite - Visible Passes

Search period start: 30 September 2020 00:00
Search period end: 10 October 2020 00:00
Orbit: 455 x 503 km, 97.2° (Epoch: 29 September)

Date Brightness Start Highest point End Pass type
(mag) Time Alt. Az. Time Alt. Az. Time Alt. Az.
01 Oct 7.2 04:18:30 10° NNE 04:22:05 60° E 04:25:33 10° S visible
02 Oct 9.0 03:52:52 10° NE 03:55:57 26° E 03:58:57 10° SSE visible
03 Oct 10.0 03:28:03 10° ENE 03:29:42 13° E 03:31:20 10° ESE visible
05 Oct 8.0 04:07:45 10° NNE 04:11:09 42° E 04:14:29 10° S visible
06 Oct 9.6 03:42:20 10° NE 03:44:58 19° E 03:47:33 10° SE visible
08 Oct 6.9 04:22:45 10° NNE 04:26:17 71° E 04:29:44 10° S visible
09 Oct 8.7 03:57:00 10° NNE 04:00:09 30° E 04:03:13 10° SSE visible
